NOAA 16 DEB, 42357

Orbit data source: Space-Track

NOAA 16 DEB, 42357 is space debris in SSO originally from a launch on Thu, 21 Sep 2000 UTC launched from the Air Force Western Test Range (AFWTR). Debris objects in space refer to the collection of defunct objects orbiting the Earth. Examples of debris include non-operational satellites, rocket bodies, and fragments generated from explosions, collisions, or faulty payload assembly.

Loading next visibility...
Identifier
42357, 2000-055QZ
Orbit
SSO
Country
Flag of USUS
Related business
Manufacturer
Unknown
Mission
Spacecraft
Bus & Motor
Unknown
Mass
Unknown
Launch date (UTC)
2000-09-21 (26 years ago)
Launch vehicle
Unknown
Launch site
Air Force Western Test Range (AFWTR)
Object type
Payload
Rocket body
Debris
Shape & HBR
Unknown shape, 0.1 m
Radar Cross Section
Medium (>0.1 m² and <1 m²)

Expand to show TLE details & history
Last TLE update: 15 hours ago

TLE from 15 hours ago
0 NOAA 16 DEB
1 42357U 00055QZ  26236.16741947  .00051795  00000-0  50225-2 0  9992
2 42357  98.7869  32.4658 0008039 172.8731 187.2601 14.92431796547880
Epoch: 2026-08-24T04:01Z
TLE epoch observation values (Epoch: 2026-08-24T04:01:05.042Z)
Latitude
0.00003°
Longitude
-0.25822°
Altitude
598.924 km
Speed
7.557 km/s
True Right ascension
02h 09m 51s
True Declination
0° 00' 00"
Sunlit
Object was in full shadow at epoch
Visualization orbit readout
Latitude
Unknown
Longitude
Unknown
Altitude
Unknown
Speed
Unknown
Apparent Right ascension
Unknown
Apparent Declination
Unknown
Sunlit
N/A
Visualization observer readout
Local Sidereal Time
10:21:45
Azimuth
Unknown
Elevation
Unknown
Doppler factor
Unknown
Orbital elements
Apogee altitude
593.022 km
Perigee altitude
581.822 km
Semi-major axis
6,965.559 km
Eccentricity
0.0008
Inclination
98.7869°
RAAN
32.4658°
Arg. of periapsis
172.8731°
True anomaly
187.24847°
Mean anomaly
187.2601°
Eccentric anomaly
187.25428°
Mean motion
3.73344 °/min
Orbital period
96.43 mins
BSTAR
0.0050225
Loading maneuver chart data...
Computing Atmospheric mass density...
Loading historical data...
Loading historical data...
Loading historical data...
Loading historical data...
Loading historical data...
Loading historical data...
Loading historical data...

Documentation

Showing up to 5 results
|